Showing default

GAOFEN 6, 43484

Orbit data source: Space-Track

GAOFEN 6, 43484 is a payload satellite owned by GGKGJ (CN) in SSO that was launched on Sat, 02 Jun 2018 UTC via a CHANG ZHENG 2D launch vehicle from the Jiuquan Satellite Launch Center, China (JSC). Payload-class satellites include a variety of spacecraft equipped with specific instruments for various scientific and technological missions. These include communications satellites like Starlink; space stations such as the ISS; scientific satellites like the Hubble; Earth observation satellites from companies like Planet Labs, Umbra, and HawkEye 360; GPS; miniature CubeSats for education and research; and military/defense satellites.

Loading next visibility...
Identifier
43484, 2018-048A
Orbit
SSO
Country
Flag of CNCN / PRC
Related business
Manufacturer
DFH
Mission
Operational Civil Imaging
Bus & Motor
CAST-2000, AOCS
Mass
1,064 kg wet, ~900 kg dry
Launch date (UTC)
2018-06-02 (8 years ago)
Launch vehicle
CHANG ZHENG 2D
Launch site
Jiuquan Satellite Launch Center, China (JSC)
Object type
Payload
Rocket body
Debris
Shape & HBR
Box + 2 Pan, 2.0 m
Radar Cross Section
4.991 m², Large (>1 m²)

Expand to show TLE details & history
Last TLE update: 5 hours ago

TLE from 5 hours ago
0 GAOFEN 6
1 43484U 18048A   26265.32437927 -.00000091  00000-0 -54677-5 0  9998
2 43484  98.0876 328.1551 0009791 212.7683 147.2920 14.76443786447722
Epoch: 2026-09-22T07:47Z
TLE epoch observation values (Epoch: 2026-09-22T07:47:06.368Z)
Latitude
-0.00007°
Longitude
-149.81291°
Altitude
649.368 km
Speed
7.53 km/s
True Right ascension
21h 52m 37s
True Declination
0° 00' 00"
Sunlit
Object was in full shadow at epoch
Visualization orbit readout
Latitude
Unknown
Longitude
Unknown
Altitude
Unknown
Speed
Unknown
Apparent Right ascension
Unknown
Apparent Declination
Unknown
Sunlit
N/A
Visualization observer readout
Local Sidereal Time
05:51:58
Azimuth
Unknown
Elevation
Unknown
Doppler factor
Unknown
Orbital elements
Apogee altitude
644.495 km
Perigee altitude
630.757 km
Semi-major axis
7,015.763 km
Eccentricity
0.00098
Inclination
98.0876°
RAAN
328.1551°
Arg. of periapsis
212.7683°
True anomaly
147.35256°
Mean anomaly
147.292°
Eccentric anomaly
147.32229°
Mean motion
3.69344 °/min
Orbital period
97.47 mins
BSTAR
-0.0000054677
Loading maneuver chart data...
Computing Atmospheric mass density...
Loading historical data...
Loading historical data...
Loading historical data...
Loading historical data...
Loading historical data...
Loading historical data...
Loading historical data...
Other satellites on launch #48 in the year 2018 (2018-06-02 UTC)

Documentation

Showing up to 5 results
|